Bar Harbor, ME

1:02 PM EST on December 05, 2019 (GMT -0500)
Hancock County-Bar Harbor

Weather History for KBHB - October, 2019

Change the Weather History Date:

Friday, October 11, 2019

  Actual Average Record
Temperature  
Mean Temperature 54 °F -  
Max Temperature 63 °F 56 °F 74 °F (1961)
Min Temperature 46 °F 40 °F 31 °F (1952)
Degree Days  
Heating Degree Days 10    
Growing Degree Days 4 (Base 50)    
Moisture  
Dew Point 43 °F    
Average Humidity 70    
Maximum Humidity 93    
Minimum Humidity 41    
Precipitation  
Precipitation 0.07 in - - ()
Sea Level Pressure  
Sea Level Pressure 30.27 in    
Wind  
Wind Speed 12 mph (NE)    
Max Wind Speed 21 mph    
Max Gust Speed 28 mph    
Visibility 9 miles    
Events Rain    
Averages and records for this station are not official NWS values.
T = Trace of Precipitation, MM = Missing Value Source: NWS Daily Summary

Daily Weather History Graph

Daily Weather History Graph

Search for Another Location

Airport or City:

Astronomy

Oct. 11, 2019 Rise Set
Actual Time 6:43 AM EDT 5:56 PM EDT
Civil Twilight 6:14 AM EDT 6:25 PM EDT
Nautical Twilight 5:40 AM EDT 6:59 PM EDT
Astronomical Twilight 5:06 AM EDT 7:32 PM EDT
Moon 5:31 PM EDT (10/11) 4:11 AM EDT (10/11)
Length of Visible Light 12h 11m
Length of Day
11h 13m
Waxing Gibbous, 96% of the Moon is Illuminated
Oct 11
Waxing Gibbous
Oct 13
Full
Oct 21
Last Quarter
Oct 27
New
Nov 4
First Quarter

Hourly Weather History & Observations

Time (EDT) Temp. Dew Point Humidity Pressure Visibility Wind Dir Wind Speed Gust Speed Precip Events Conditions
12:56 AM 48.0 °F 42.1 °F 80% 30.37 in 10.0 mi NNE 8.1 mph - N/A   Clear
1:56 AM 48.0 °F 42.1 °F 80% 30.36 in 10.0 mi North 6.9 mph - N/A   Clear
2:56 AM 46.9 °F 42.1 °F 83% 30.34 in 10.0 mi NNE 11.5 mph - N/A   Clear
3:56 AM 48.0 °F 42.1 °F 80% 30.35 in 10.0 mi NNE 10.4 mph - N/A   Clear
4:56 AM 48.0 °F 43.0 °F 83% 30.33 in 10.0 mi NNE 15.0 mph - N/A   Clear
5:56 AM 48.0 °F 42.1 °F 80% 30.34 in 10.0 mi NE 15.0 mph - N/A   Clear
6:56 AM 48.0 °F 42.1 °F 80% 30.34 in 10.0 mi NE 12.7 mph - N/A   Clear
7:56 AM 48.9 °F 42.1 °F 77% 30.34 in 10.0 mi NNE 11.5 mph - N/A   Clear
8:56 AM 51.1 °F 42.1 °F 71% 30.34 in 10.0 mi NNE 11.5 mph - N/A   Clear
9:56 AM 55.9 °F 41.0 °F 57% 30.33 in 10.0 mi NNE 11.5 mph - N/A   Clear
10:56 AM 57.9 °F 39.9 °F 51% 30.31 in 10.0 mi NE 18.4 mph 21.9 mph N/A   Clear
11:56 AM 57.9 °F 39.9 °F 51% 30.30 in 10.0 mi NE 13.8 mph - N/A   Overcast
12:56 PM 63.0 °F 39.0 °F 41% 30.27 in 10.0 mi NE 16.1 mph 24.2 mph N/A   Mostly Cloudy
1:56 PM 62.1 °F 37.9 °F 41% 30.27 in 10.0 mi NE 15.0 mph 25.3 mph N/A   Overcast
2:56 PM 61.0 °F 39.0 °F 44% 30.25 in 10.0 mi NE 19.6 mph 25.3 mph N/A   Overcast
3:56 PM 60.1 °F 39.9 °F 47% 30.24 in 10.0 mi NE 15.0 mph 23.0 mph N/A   Overcast
4:56 PM 59.0 °F 42.1 °F 53% 30.24 in 10.0 mi NE 12.7 mph 20.7 mph N/A   Overcast
5:56 PM 57.0 °F 44.1 °F 62% 30.24 in 10.0 mi NE 9.2 mph - N/A   Overcast
6:56 PM 55.9 °F 45.0 °F 67% 30.23 in 10.0 mi NE 12.7 mph 19.6 mph N/A   Overcast
7:56 PM 55.9 °F 45.0 °F 67% 30.22 in 10.0 mi East 15.0 mph 23.0 mph N/A   Overcast
8:28 PM 55.4 °F 46.4 °F 72% 30.21 in 10.0 mi ENE 15.0 mph 18.4 mph N/A   Overcast
8:56 PM 54.0 °F 46.9 °F 77% 30.22 in 10.0 mi ENE 18.4 mph 24.2 mph N/A   Overcast
9:32 PM 53.6 °F 46.4 °F 77% 30.20 in 10.0 mi NE 20.7 mph 26.5 mph N/A   Overcast
9:53 PM 51.8 °F 48.2 °F 88% 30.20 in 3.0 mi ENE 17.3 mph 27.6 mph 0.01 in Rain Rain
9:54 PM 51.1 °F 48.0 °F 89% 30.20 in 3.0 mi ENE 17.3 mph 27.6 mph 0.02 in Rain Rain
10:06 PM 51.8 °F 48.2 °F 88% 30.19 in 2.5 mi NE 13.8 mph 24.2 mph 0.02 in Rain Light Rain
10:13 PM 51.8 °F 48.2 °F 88% 30.19 in 4.0 mi NE 12.7 mph 21.9 mph 0.03 in Rain Light Rain
10:56 PM 50.0 °F 48.0 °F 93% 30.17 in 9.0 mi NE 15.0 mph 24.2 mph 0.05 in Rain Light Rain